Location: Adrasan
(36.3319°N, 30.4314°E)
Time: 07:40:04
(UTC+00:00)

Delta 2 Rocket - Pass Details

Date: 06 June 2024
Orbit: 398 x 673 km, 35.6° (Epoch: 23 June)

Event Time Altitude Azimuth Distance (km) Brightness Sun altitude
Exits shadow 01:43:14 14° 219° (SW) 1,688 5.2 -10.4°
Maximum altitude 01:46:41 36° 156° (SSE) 981 4.5 -9.9°
Drops below altitude 10° 01:51:03 10° 90° (E) 2,044 7.1 -9.2°
Sets 01:53:38 0° 82° (E) 2,984 8.3 -8.8°
